Flag for Greenland Weather past 2 weeks in Nuuk, Greenland

Now
41 °F

Overcast.


Feels Like: 38 °F
Forecast: 36 / 43 °F
Wind: 5 mph from Southeast

Location: Godthaab / Nuuk

Current Time: Sep 19, 2014 at 10:48:01 PM

Latest Report: Sep 19, 2014 at 9:50 PM


Visibility: N/A

Pressure: 29.71 "Hg

Humidity: 70%

Dew point: 32 °F

Location of NuukLocation

Historic Weather in Nuuk — Graph

°F

Nuuk temperature yesterday

Maximum temperature yesterday: 48 °F (at 1:50 AM)
Minimum temperature yesterday: 41 °F (at 5:50 AM)
Average temperature yesterday: 44 °F

Past Weeks' High & Low Weather Summary

 TemperatureHumidityPressure
High50 °F (Sep 17, 1:50 PM)100% (Sep 5, 2:50 PM)30.09 "Hg (Sep 5, 2:50 PM)
Low34 °F (Sep 14, 4:50 AM)31% (Sep 19, 12:50 PM)29.21 "Hg (Sep 13, 5:50 AM)
Average41 °F78%29.69 "Hg
* Reported Sep 4 8:50 PM — Sep 19 8:50 PM, Nuuk, Weather by CustomWeather, © 2014

Note: Actual official high and low records may vary slightly from our data, if they occured in-between our weather recording intervals... More about our weather records

Advertising

Nuuk weather history for previous 24 hours

 ConditionsComfort  
Time TempWeatherWind HumidityBarometerVisibility
8:50 PM
Sep 19
39 °FPassing clouds.3 mph81%29.71 "HgN/A
7:50 PM43 °FPartly sunny.9 mph57%29.74 "HgN/A
6:50 PM41 °FPartly sunny.8 mph66%29.77 "HgN/A
5:50 PM41 °FBroken clouds.8 mph66%29.77 "HgN/A
4:50 PM39 °FLight rain. Broken clouds.26 mph70%29.77 "HgN/A
3:50 PM41 °FLight rain. Broken clouds.33 mph76%29.77 "HgN/A
2:50 PM41 °FLight rain. Broken clouds.36 mph61%29.77 "HgN/A
1:50 PM45 °FScattered showers. Broken clouds.32 mph34%29.77 "HgN/A
12:50 PM45 °FScattered showers. Broken clouds.35 mph31%29.77 "HgN/A
11:50 AM43 °FBroken clouds.37 mph39%29.77 "HgN/A
10:50 AM43 °FScattered showers. Partly sunny.32 mph42%29.77 "HgN/A
9:50 AM45 °FScattered showers. Partly sunny.31 mph37%29.77 "HgN/A
8:50 AM43 °FPartly sunny.31 mph36%29.74 "HgN/A
7:50 AM43 °FPassing clouds.32 mph39%29.74 "HgN/A
7:20 AM43 °FOvercast.29 mph42%29.77 "HgN/A
6:50 AM43 °FMostly cloudy.9 mph46%29.77 "HgN/A
5:50 AM41 °FOvercast.24 mph57%29.80 "HgN/A
4:50 AM39 °FSprinkles. Overcast.15 mph65%29.80 "HgN/A
3:50 AM41 °FSprinkles. Passing clouds.30 mph53%29.77 "HgN/A
2:50 AM41 °FLight rain. Passing clouds.31 mph53%29.80 "HgN/A
1:50 AM41 °FPassing clouds.31 mph53%29.77 "HgN/A
12:50 AM43 °FPassing clouds.30 mph46%29.77 "HgN/A
11:50 PM
Sep 18
41 °FSprinkles. Passing clouds.31 mph66%29.77 "HgN/A
10:50 PM43 °FPassing clouds.24 mph61%29.77 "HgN/A
Weather by CustomWeather, © 2014

See weather overviewHow to use our weather pages